FDB74X OPMT-OMDB

Flight info

Callsign FDB74X
Flight time N/A
Altitude 30000
Route RAJAN J119 SK G214 PG/N0480F320 G665 ASVIB N312 MOBET M324 PATAT L519 PUVAL
Aircraft B738/M-SDE2E3FGHIRWXY/LB1

Departure

Time N/A
Airport Multan International Airport (OPMT)

Arrival

Time 2026-05-04 23:37
Airport Dubai International Airport (OMDB)
Time Latitude Longitude Altitude Speed Heading
2026-05-04 22:14 26.84784 62.03902 29905 ft 432 kts 268°
2026-05-04 22:15 26.84174 61.97201 29899 ft 433 kts 268°
2026-05-04 22:15 26.83559 61.90482 29902 ft 432 kts 268°
2026-05-04 22:16 26.82941 61.83782 29907 ft 432 kts 268°
2026-05-04 22:16 26.82322 61.77089 29905 ft 433 kts 268°
2026-05-04 22:17 26.81702 61.70429 29901 ft 432 kts 268°
2026-05-04 22:17 26.81079 61.63752 29911 ft 432 kts 268°
2026-05-04 22:18 26.80443 61.56996 29910 ft 432 kts 268°
2026-05-04 22:18 26.79815 61.50353 29919 ft 432 kts 268°
2026-05-04 22:19 26.79176 61.43620 29902 ft 432 kts 268°
2026-05-04 22:19 26.78540 61.36941 29906 ft 431 kts 268°
2026-05-04 22:20 26.77899 61.30262 29909 ft 431 kts 268°
2026-05-04 22:20 26.77258 61.23623 29906 ft 431 kts 267°
2026-05-04 22:21 26.76608 61.16911 29892 ft 431 kts 268°
2026-05-04 22:21 26.75958 61.10244 29903 ft 430 kts 268°
2026-05-04 22:22 26.75315 61.03656 29890 ft 430 kts 267°
2026-05-04 22:22 26.74660 60.96998 29890 ft 431 kts 267°
2026-05-04 22:23 26.74002 60.90336 29889 ft 431 kts 267°
2026-05-04 22:23 26.73341 60.83677 29891 ft 431 kts 267°
2026-05-04 22:24 26.72677 60.77019 29887 ft 431 kts 267°
2026-05-04 22:24 26.72009 60.70344 29883 ft 431 kts 267°
2026-05-04 22:25 26.71341 60.63673 29879 ft 431 kts 268°
2026-05-04 22:25 26.70985 60.56991 29869 ft 430 kts 271°
2026-05-04 22:26 26.70794 60.50301 29865 ft 430 kts 271°
2026-05-04 22:26 26.70575 60.43646 29866 ft 431 kts 271°
2026-05-04 22:27 26.70325 60.36947 29860 ft 431 kts 271°
2026-05-04 22:27 26.70067 60.30235 29866 ft 432 kts 271°
2026-05-04 22:28 26.69807 60.23515 29851 ft 432 kts 271°
2026-05-04 22:28 26.69545 60.16795 29847 ft 432 kts 271°
2026-05-04 22:29 26.69280 60.10073 29844 ft 432 kts 271°
2026-05-04 22:29 26.69012 60.03359 29849 ft 431 kts 270°
2026-05-04 22:30 26.68743 59.96688 29845 ft 431 kts 271°
2026-05-04 22:30 26.68470 59.89988 29845 ft 431 kts 270°
2026-05-04 22:31 26.68193 59.83294 29834 ft 430 kts 270°
2026-05-04 22:31 26.67915 59.76608 29833 ft 430 kts 270°
2026-05-04 22:32 26.67632 59.69926 29835 ft 430 kts 270°
2026-05-04 22:32 26.67348 59.63252 29835 ft 430 kts 270°
2026-05-04 22:33 26.67059 59.56568 29835 ft 429 kts 270°
2026-05-04 22:33 26.66805 59.51033 29832 ft 429 kts 270°
2026-05-04 22:34 26.66489 59.44378 29830 ft 428 kts 270°
2026-05-04 22:34 26.66173 59.37745 29833 ft 427 kts 270°
2026-05-04 22:35 26.65857 59.31112 29824 ft 427 kts 270°
2026-05-04 22:35 26.65536 59.24467 29826 ft 428 kts 270°
2026-05-04 22:36 26.65213 59.17829 29830 ft 427 kts 270°
2026-05-04 22:36 26.64887 59.11196 29819 ft 427 kts 270°
2026-05-04 22:37 26.64564 59.04624 29829 ft 427 kts 270°
2026-05-04 22:37 26.64234 58.98040 29827 ft 427 kts 270°
2026-05-04 22:38 26.63897 58.91406 29826 ft 427 kts 270°
2026-05-04 22:38 26.63558 58.84759 29822 ft 428 kts 270°
2026-05-04 22:39 26.63216 58.78119 29833 ft 428 kts 270°
2026-05-04 22:39 26.62870 58.71458 29838 ft 429 kts 270°
2026-05-04 22:40 26.62521 58.64798 29846 ft 430 kts 270°
2026-05-04 22:40 26.62167 58.58125 29842 ft 430 kts 270°
2026-05-04 22:41 26.61811 58.51439 29844 ft 431 kts 270°
2026-05-04 22:41 26.61451 58.44754 29860 ft 431 kts 270°
2026-05-04 22:42 26.61089 58.38067 29858 ft 430 kts 269°
2026-05-04 22:42 26.60722 58.31374 29857 ft 431 kts 270°
2026-05-04 22:43 26.60354 58.24700 29864 ft 431 kts 270°
2026-05-04 22:43 26.59983 58.18051 29860 ft 431 kts 269°
2026-05-04 22:44 26.59608 58.11365 29873 ft 431 kts 269°
2026-05-04 22:44 26.59228 58.04660 29864 ft 432 kts 269°
2026-05-04 22:45 26.58844 57.97948 29874 ft 432 kts 269°
2026-05-04 22:45 26.58266 57.87930 29863 ft 433 kts 269°
2026-05-04 22:46 26.57872 57.81171 29853 ft 433 kts 269°
2026-05-04 22:46 26.57479 57.74449 29847 ft 434 kts 269°
2026-05-04 22:47 26.57080 57.67730 29836 ft 434 kts 269°
2026-05-04 22:47 26.57364 57.61094 29831 ft 429 kts 281°
2026-05-04 22:48 26.58399 57.54523 29821 ft 430 kts 282°
2026-05-04 22:48 26.59427 57.47937 29799 ft 430 kts 281°
2026-05-04 22:49 26.60427 57.41365 29790 ft 429 kts 281°
2026-05-04 22:49 26.61414 57.34794 29784 ft 428 kts 281°
2026-05-04 22:50 26.62395 57.28238 29769 ft 427 kts 281°
2026-05-04 22:50 26.63371 57.21691 29765 ft 427 kts 281°
2026-05-04 22:51 26.64339 57.15178 29757 ft 427 kts 281°
2026-05-04 22:51 26.65308 57.08641 29763 ft 425 kts 281°
2026-05-04 22:52 26.66269 57.02123 29753 ft 425 kts 281°
2026-05-04 22:52 26.67230 56.95600 29755 ft 425 kts 281°
2026-05-04 22:53 26.68186 56.89087 29754 ft 424 kts 281°
2026-05-04 22:53 26.69145 56.82535 29761 ft 430 kts 278°
2026-05-04 22:54 26.70111 56.75897 29759 ft 433 kts 278°
2026-05-04 22:54 26.71080 56.69227 29753 ft 434 kts 278°
2026-05-04 22:55 26.72046 56.62552 29752 ft 435 kts 278°
2026-05-04 22:55 26.73006 56.55900 29754 ft 434 kts 278°
2026-05-04 22:56 26.73964 56.49240 29756 ft 433 kts 278°
2026-05-04 22:56 26.74595 56.42565 29749 ft 431 kts 268°
2026-05-04 22:57 26.74292 56.35879 29746 ft 430 kts 267°
2026-05-04 22:57 26.74024 56.29196 29751 ft 429 kts 268°
2026-05-04 22:58 26.73566 56.22554 29736 ft 429 kts 256°
2026-05-04 22:58 26.72447 56.19456 29755 ft 432 kts 243°
2026-05-04 22:58 26.70667 56.16726 29741 ft 438 kts 230°
2026-05-04 22:59 26.68363 56.14459 29744 ft 444 kts 219°
2026-05-04 22:59 26.65620 56.12813 29741 ft 454 kts 205°
2026-05-04 22:59 26.59473 56.10919 29730 ft 459 kts 199°
2026-05-04 23:00 26.53235 56.09221 28976 ft 465 kts 199°
2026-05-04 23:00 26.50105 56.08341 28184 ft 462 kts 199°
2026-05-04 23:00 26.47030 56.07458 27316 ft 462 kts 199°
2026-05-04 23:01 26.43925 56.06553 26609 ft 461 kts 200°
2026-05-04 23:01 26.40787 56.05633 25930 ft 458 kts 199°
2026-05-04 23:01 26.37754 56.04743 25286 ft 457 kts 199°
2026-05-04 23:01 26.34618 56.03822 24630 ft 463 kts 199°
2026-05-04 23:02 26.31487 56.02906 23964 ft 465 kts 198°
2026-05-04 23:02 26.28362 56.01996 23296 ft 463 kts 198°
2026-05-04 23:02 26.25217 56.01232 22506 ft 463 kts 192°
2026-05-04 23:02 26.22035 56.00765 21809 ft 459 kts 189°
2026-05-04 23:03 26.18872 56.00371 21167 ft 454 kts 189°
2026-05-04 23:03 26.15743 55.99984 20529 ft 450 kts 189°
2026-05-04 23:03 26.12648 55.99582 19912 ft 445 kts 190°
2026-05-04 23:03 26.09585 55.99165 19279 ft 442 kts 190°
2026-05-04 23:04 26.06541 55.98738 18656 ft 439 kts 190°
2026-05-04 23:04 26.03483 55.98308 18025 ft 436 kts 191°
2026-05-04 23:04 26.00532 55.97887 17359 ft 432 kts 192°
2026-05-04 23:04 25.97632 55.97085 16723 ft 423 kts 204°
2026-05-04 23:05 25.94980 55.95696 16123 ft 414 kts 213°
2026-05-04 23:05 25.92688 55.93891 15532 ft 406 kts 224°
2026-05-04 23:05 25.90611 55.91791 14954 ft 401 kts 225°
2026-05-04 23:05 25.88561 55.89701 14354 ft 398 kts 225°
2026-05-04 23:06 25.86507 55.87645 13765 ft 396 kts 224°
2026-05-04 23:06 25.84456 55.85620 13259 ft 391 kts 224°
2026-05-04 23:06 25.82373 55.83727 12748 ft 386 kts 217°
2026-05-04 23:06 25.80046 55.82239 12308 ft 382 kts 208°
2026-05-04 23:07 25.77688 55.81014 12171 ft 368 kts 207°
2026-05-04 23:07 25.75403 55.79832 12000 ft 355 kts 208°
2026-05-04 23:07 25.73205 55.78683 11859 ft 343 kts 208°
2026-05-04 23:07 25.71086 55.77563 11714 ft 332 kts 208°
2026-05-04 23:08 25.69031 55.76471 11578 ft 322 kts 209°
2026-05-04 23:08 25.67035 55.75407 11444 ft 313 kts 209°
2026-05-04 23:08 25.65746 55.74719 11359 ft 307 kts 209°
2026-05-04 23:08 25.63848 55.73709 11234 ft 299 kts 209°
2026-05-04 23:09 25.61999 55.72724 11108 ft 290 kts 211°
2026-05-04 23:09 25.60459 55.71415 10972 ft 273 kts 235°
2026-05-04 23:09 25.59564 55.69630 10882 ft 260 kts 255°
2026-05-04 23:09 25.59156 55.67702 10791 ft 256 kts 261°
2026-05-04 23:10 25.58822 55.65772 10681 ft 255 kts 262°
2026-05-04 23:10 25.58494 55.63829 10577 ft 258 kts 261°
2026-05-04 23:10 25.58158 55.61863 10469 ft 261 kts 261°
2026-05-04 23:10 25.57816 55.59890 10345 ft 261 kts 261°
2026-05-04 23:11 25.57470 55.57914 10241 ft 260 kts 261°
2026-05-04 23:11 25.57125 55.55954 10129 ft 259 kts 261°
2026-05-04 23:11 25.56778 55.53992 10023 ft 259 kts 261°
2026-05-04 23:11 25.56437 55.52076 9912 ft 258 kts 261°
2026-05-04 23:12 25.56089 55.50131 9804 ft 257 kts 261°
2026-05-04 23:12 25.55744 55.48194 9695 ft 256 kts 259°
2026-05-04 23:12 25.55007 55.46392 9571 ft 261 kts 236°
2026-05-04 23:12 25.53665 55.45029 9464 ft 265 kts 217°
2026-05-04 23:13 25.52117 55.43960 9348 ft 258 kts 216°
2026-05-04 23:13 25.50607 55.42933 9225 ft 251 kts 216°
2026-05-04 23:13 25.49141 55.41926 9103 ft 244 kts 216°
2026-05-04 23:13 25.47718 55.40948 9008 ft 240 kts 216°
2026-05-04 23:14 25.46306 55.39979 8917 ft 238 kts 216°
2026-05-04 23:14 25.44912 55.39020 8827 ft 239 kts 216°
2026-05-04 23:14 25.43484 55.38038 8727 ft 239 kts 216°
2026-05-04 23:14 25.42067 55.37061 8634 ft 241 kts 216°
2026-05-04 23:15 25.40633 55.36074 8515 ft 243 kts 216°
2026-05-04 23:15 25.39194 55.35083 8400 ft 244 kts 216°
2026-05-04 23:15 25.37750 55.34092 8293 ft 245 kts 216°
2026-05-04 23:15 25.36206 55.33269 8162 ft 252 kts 195°
2026-05-04 23:16 25.34446 55.33385 8059 ft 259 kts 164°
2026-05-04 23:16 25.32799 55.34226 7986 ft 261 kts 155°
2026-05-04 23:16 25.31195 55.35184 7867 ft 263 kts 154°
2026-05-04 23:16 25.29585 55.36157 7753 ft 263 kts 154°
2026-05-04 23:17 25.27969 55.37128 7626 ft 260 kts 154°
2026-05-04 23:17 25.26390 55.38069 7509 ft 256 kts 154°
2026-05-04 23:17 25.24831 55.38991 7403 ft 254 kts 154°
2026-05-04 23:17 25.23268 55.39909 7302 ft 254 kts 154°
2026-05-04 23:18 25.21698 55.40829 7196 ft 255 kts 154°
2026-05-04 23:18 25.20124 55.41750 7092 ft 255 kts 154°
2026-05-04 23:18 25.18556 55.42666 6988 ft 256 kts 154°
2026-05-04 23:18 25.16981 55.43588 6877 ft 256 kts 154°
2026-05-04 23:19 25.15395 55.44518 6777 ft 258 kts 154°
2026-05-04 23:19 25.13827 55.45435 6674 ft 258 kts 154°
2026-05-04 23:19 25.12212 55.46376 6560 ft 258 kts 154°
2026-05-04 23:19 25.10820 55.47613 6425 ft 261 kts 126°
2026-05-04 23:20 25.09866 55.49298 6353 ft 258 kts 121°
2026-05-04 23:20 25.08931 55.51001 6245 ft 258 kts 121°
2026-05-04 23:20 25.07993 55.52691 6116 ft 258 kts 122°
2026-05-04 23:20 25.07063 55.54369 6021 ft 256 kts 122°
2026-05-04 23:21 25.06127 55.56046 5910 ft 256 kts 122°
2026-05-04 23:21 25.05196 55.57710 5806 ft 254 kts 122°
2026-05-04 23:21 25.04269 55.59366 5698 ft 252 kts 122°
2026-05-04 23:21 25.03374 55.60978 5623 ft 240 kts 121°
2026-05-04 23:22 25.02522 55.62521 5512 ft 228 kts 121°
2026-05-04 23:22 25.01719 55.63972 5407 ft 215 kts 121°
2026-05-04 23:22 25.00961 55.65341 5331 ft 208 kts 122°
2026-05-04 23:22 25.00210 55.66688 5246 ft 208 kts 122°
2026-05-04 23:23 24.99455 55.68038 5143 ft 206 kts 122°
2026-05-04 23:23 24.98698 55.69394 5067 ft 203 kts 121°
2026-05-04 23:23 24.97967 55.70700 4979 ft 202 kts 121°
2026-05-04 23:23 24.97229 55.72015 4898 ft 201 kts 122°
2026-05-04 23:24 24.96494 55.73326 4816 ft 201 kts 122°
2026-05-04 23:24 24.95758 55.74641 4742 ft 201 kts 121°
2026-05-04 23:24 24.95023 55.75952 4651 ft 201 kts 122°
2026-05-04 23:24 24.94516 55.77370 4537 ft 200 kts 89°
2026-05-04 23:25 24.94875 55.78786 4473 ft 190 kts 50°
2026-05-04 23:25 24.95831 55.79728 4429 ft 183 kts 29°
2026-05-04 23:25 24.96917 55.80476 4348 ft 185 kts 27°
2026-05-04 23:25 24.98030 55.81213 4273 ft 188 kts 25°
2026-05-04 23:26 24.99263 55.81544 4155 ft 181 kts 349°
2026-05-04 23:26 25.00355 55.80997 4100 ft 175 kts 315°
2026-05-04 23:26 25.01052 55.79893 4042 ft 173 kts 302°
2026-05-04 23:26 25.01688 55.78773 3966 ft 175 kts 302°
2026-05-04 23:27 25.02343 55.77614 3882 ft 178 kts 302°
2026-05-04 23:27 25.02997 55.76455 3795 ft 178 kts 303°
2026-05-04 23:27 25.03678 55.75328 3729 ft 178 kts 303°
2026-05-04 23:27 25.04367 55.74163 3649 ft 179 kts 302°
2026-05-04 23:28 25.05019 55.73019 3577 ft 178 kts 302°
2026-05-04 23:28 25.05678 55.71848 3497 ft 176 kts 302°
2026-05-04 23:28 25.06317 55.70701 3419 ft 175 kts 301°
2026-05-04 23:28 25.06953 55.69556 3343 ft 174 kts 301°
2026-05-04 23:29 25.07583 55.68418 3280 ft 175 kts 301°
2026-05-04 23:29 25.08218 55.67270 3206 ft 175 kts 301°
2026-05-04 23:29 25.08825 55.66166 3156 ft 161 kts 301°
2026-05-04 23:29 25.09383 55.65156 3068 ft 149 kts 301°
2026-05-04 23:30 25.09913 55.64198 3014 ft 145 kts 301°
2026-05-04 23:30 25.10435 55.63251 2946 ft 145 kts 302°
2026-05-04 23:30 25.10962 55.62299 2887 ft 145 kts 301°
2026-05-04 23:30 25.11491 55.61344 2817 ft 143 kts 301°
2026-05-04 23:31 25.12010 55.60405 2756 ft 143 kts 301°
2026-05-04 23:31 25.12527 55.59469 2698 ft 144 kts 301°
2026-05-04 23:31 25.13048 55.58527 2632 ft 144 kts 302°
2026-05-04 23:31 25.13568 55.57588 2578 ft 143 kts 301°
2026-05-04 23:32 25.14083 55.56654 2515 ft 143 kts 301°
2026-05-04 23:32 25.14602 55.55717 2451 ft 143 kts 301°
2026-05-04 23:32 25.15119 55.54777 2394 ft 143 kts 301°
2026-05-04 23:32 25.15647 55.53825 2345 ft 143 kts 301°
2026-05-04 23:33 25.16162 55.52895 2278 ft 142 kts 301°
2026-05-04 23:33 25.16680 55.51960 2215 ft 143 kts 302°
2026-05-04 23:33 25.17209 55.51012 2107 ft 145 kts 302°
2026-05-04 23:33 25.17734 55.50062 2018 ft 146 kts 302°
2026-05-04 23:34 25.18265 55.49102 1986 ft 146 kts 301°
2026-05-04 23:34 25.18792 55.48150 1872 ft 144 kts 301°
2026-05-04 23:34 25.19138 55.47525 1754 ft 145 kts 301°
2026-05-04 23:34 25.19659 55.46582 1581 ft 143 kts 301°
2026-05-04 23:35 25.20182 55.45641 1368 ft 143 kts 301°
2026-05-04 23:35 25.20706 55.44692 1174 ft 144 kts 301°
2026-05-04 23:35 25.21230 55.43748 993 ft 145 kts 301°
2026-05-04 23:35 25.21762 55.42789 809 ft 147 kts 300°
2026-05-04 23:36 25.22296 55.41825 621 ft 148 kts 300°
2026-05-04 23:36 25.22831 55.40860 423 ft 147 kts 300°
2026-05-04 23:36 25.23369 55.39889 215 ft 146 kts 300°
2026-05-04 23:36 25.23903 55.38922 48 ft 146 kts 300°
2026-05-04 23:37 25.24386 55.38052 30 ft 114 kts 302°
2026-05-04 23:37 25.24719 55.37449 27 ft 71 kts 301°
2026-05-04 23:37 25.24908 55.37115 29 ft 41 kts 310°
2026-05-04 23:37 25.25031 55.36996 29 ft 19 kts 328°
2026-05-04 23:38 25.25148 55.36921 26 ft 20 kts 330°
2026-05-04 23:38 25.25274 55.36862 25 ft 19 kts 341°
2026-05-04 23:38 25.25390 55.36798 27 ft 18 kts 326°
2026-05-04 23:38 25.25494 55.36719 27 ft 18 kts 319°
2026-05-04 23:39 25.26720 55.35331 21 ft 0 kts 31°